Flag for U.S.A. Weather past 2 weeks in Fall River, Massachusetts, U.S.A.

Now
32 °F

Sunny.


Feels Like: 25 °F
Forecast: 12 / 29 °F
Wind: 8 mph from Northwest

Location: New Bedford Regional Airport

Current Time: Feb 1, 2015 at 4:47:15 PM

Latest Report: Feb 1, 2015 at 3:53 PM


Visibility: 10 mi

Pressure: 30.10 "Hg

Humidity: 45%

Dew point: 13 °F

Location of Fall RiverLocation

Historic Weather in Fall River — Graph

°F

Fall River temperature yesterday

Maximum temperature yesterday: 24 °F (at 2:53 PM)
Minimum temperature yesterday: 13 °F (at 6:53 AM)
Average temperature yesterday: 17 °F

Past Weeks' High & Low Weather Summary

 TemperatureHumidityPressure
High52 °F (Jan 18, 12:53 PM)100% (Jan 24, 7:53 AM)30.37 "Hg (Jan 24, 7:53 AM)
Low3 °F (Jan 29, 6:53 AM)24% (Jan 17, 2:53 PM)29.08 "Hg (Jan 24, 4:53 PM)
Average28 °F70%29.90 "Hg
* Reported Jan 17 2:53 PM — Feb 1 2:53 PM, Fall River, Weather by CustomWeather, © 2014

Note: Actual official high and low records may vary slightly from our data, if they occured in-between our weather recording intervals... More about our weather records

Advertising

Fall River weather history for previous 24 hours

 ConditionsComfort  
Time TempWeatherWind HumidityBarometerVisibility
2:53 PM
Feb 1
31 °FSunny.15 mph43%30.09 "Hg10 mi
1:53 PM32 °FSunny.12 mph45%30.09 "Hg10 mi
12:53 PM30 °FSunny.13 mph51%30.09 "Hg10 mi
11:53 AM29 °FSunny.12 mph58%30.11 "Hg10 mi
10:53 AM27 °FSunny.13 mph61%30.13 "Hg10 mi
9:53 AM25 °FSunny.15 mph63%30.15 "Hg10 mi
8:53 AM21 °FSunny.8 mph68%30.15 "Hg10 mi
7:53 AM16 °FSunny.7 mph74%30.14 "Hg10 mi
6:53 AM12 °FClear.6 mph73%30.14 "Hg10 mi
5:53 AM13 °FClear.8 mph64%30.14 "Hg10 mi
4:53 AM15 °FClear.10 mph56%30.12 "Hg10 mi
3:53 AM14 °FClear.14 mph56%30.10 "Hg10 mi
2:53 AM14 °FClear.14 mph51%30.08 "Hg10 mi
1:53 AM13 °FClear.14 mph49%30.07 "Hg10 mi
12:53 AM14 °FClear.13 mph44%30.06 "Hg10 mi
11:53 PM
Jan 31
14 °FClear.13 mph42%30.05 "Hg10 mi
10:53 PM14 °FClear.15 mph44%30.04 "Hg10 mi
9:53 PM15 °FClear.14 mph42%30.02 "Hg10 mi
8:53 PM16 °FClear.12 mph40%30.01 "Hg10 mi
7:53 PM17 °FClear.12 mph39%29.99 "Hg10 mi
6:53 PM18 °FClear.12 mph37%29.98 "Hg10 mi
5:53 PM19 °FClear.16 mph34%29.95 "Hg10 mi
4:53 PM21 °FSunny.12 mph30%29.91 "Hg10 mi
Weather by CustomWeather, © 2014

See weather overviewHow to use our weather pages